User: anonymous   Login
Location: Liscomb Game Sanctuary
(45.1633°N, 62.5575°W)
Time: 02:15:40
(UTC-04:00)
Language:

Cosmos 921 Rocket - Orbit

View from above orbital plane
View from above orbital plane
View from above satellite
View from above satellite

Ground track
Ground track

The orbit data is extracted from the following two-line orbital elements,

1 10096U 77055B   18342.85642003 +.00000034 +00000-0 +58179-5 0  9998
2 10096 075.8336 121.0079 0043310 272.1757 087.4475 14.88645012242341
Epoch (UTC): 08 December 2018 20:33:14
Eccentricity: 0.0043310
inclination: 75.8336°
perigee height: 572 km
apogee height: 632 km
right ascension of ascending node: 121.0079°
argument of perigee: 272.1757°
revolutions per day: 14.88645012
mean anomaly at epoch: 87.4475°
orbit number at epoch: 24234

The dashed part of the orbit path shows where the satellite is in the earth's shadow,  

DLR